Weather History for PANT - October, 2013

Change the Weather History Date:

Sunday, October 6, 2013

  Actual Average Record
Temperature  
Mean Temperature 52 °F 49 °F  
Max Temperature 54 °F 54 °F 68 °F (2012)
Min Temperature 49 °F 44 °F 0 °F (1993)
Degree Days  
Heating Degree Days 13 16  
Month to date heating degree days 91 90  
Since 1 July heating degree days 653 825  
Cooling Degree Days 0    
Month to date cooling degree days 0  
Year to date cooling degree days 22  
Growing Degree Days 1 (Base 50)    
Moisture  
Dew Point 52 °F    
Average Humidity 0    
Maximum Humidity 0    
Minimum Humidity 0    
Precipitation  
Precipitation 1.86 in 0.40 in 2.61 in (2013)
Month to date precipitation 4.10 2.37  
Year to date precipitation 63.21 67.07  
Snow  
Snow 0.00 in 0.00 in T in (1993)
Month to date snowfall 0.0 0.0  
Since 1 July snowfall 0.0 0.0  
Since 1 September snowfall 0.0 0.0  
Snow Depth 0.00 in    
Sea Level Pressure  
Sea Level Pressure 29.56 in    
Wind  
Wind Speed 11 mph (SE)    
Max Wind Speed 25 mph    
Max Gust Speed 41 mph    
Visibility 4 miles    
Events Rain    
T = Trace of Precipitation, MM = Missing Value Source: NWS Daily Summary

Daily Weather History Graph

Daily Weather History Graph

Search for Another Location

Airport or City:

Trip Planner

Search our weather history database for the weather conditions in past years. The results will help you decide how hot, cold, wet, or windy it might be!

Date:

Astronomy

Oct. 06, 2013 Rise Set
Actual Time 6:59 AM AKDT 6:08 PM AKDT
Civil Twilight 6:22 AM AKDT 6:44 PM AKDT
Nautical Twilight 5:40 AM AKDT 7:26 PM AKDT
Astronomical Twilight 4:57 AM AKDT 8:09 PM AKDT
Moon 9:15 AM AKDT (10/6) 6:45 PM AKDT (10/6)
Length of Visible Light 12h 21m
Length of Day
11h 09m
Waxing Crescent, 4% of the Moon is Illuminated
Oct 6
Waxing Crescent
Oct 11
First Quarter
Oct 18
Full
Oct 26
Last Quarter
Nov 3
New

Hourly Weather History & Observations

Time (AKDT) Temp. Dew Point Humidity Pressure Visibility Wind Dir Wind Speed Gust Speed Precip Events Conditions
12:02 AM 48.2 °F 48.2 °F 100% 29.75 in 7.0 mi Calm Calm - 0.01 in Rain Rain
12:53 AM 48.9 °F 48.0 °F 97% 29.72 in 3.0 mi NNE 3.5 mph - 0.13 in Rain Rain
1:53 AM 48.9 °F 48.9 °F 100% 29.69 in 8.0 mi Calm Calm - 0.07 in Rain Light Rain
2:53 AM 50.0 °F 50.0 °F 100% 29.66 in 5.0 mi Variable 3.5 mph - 0.03 in Rain Light Rain
3:53 AM 52.0 °F 51.1 °F 97% 29.62 in 4.0 mi ESE 11.5 mph 20.7 mph 0.02 in Rain Light Rain
4:53 AM 52.0 °F 51.1 °F 97% 29.62 in 3.0 mi ESE 13.8 mph 26.5 mph 0.04 in Rain Light Rain
5:23 AM 51.8 °F 51.8 °F 100% 29.61 in 2.0 mi ESE 13.8 mph 24.2 mph 0.06 in Rain Rain
5:38 AM 51.8 °F 51.8 °F 100% 29.61 in 3.0 mi ESE 10.4 mph 19.6 mph 0.11 in Rain Light Rain
5:53 AM 52.0 °F 51.1 °F 97% 29.61 in 3.0 mi SE 15.0 mph 24.2 mph 0.12 in Rain Light Rain
6:53 AM 52.0 °F 52.0 °F 100% 29.60 in 3.0 mi ESE 15.0 mph 24.2 mph 0.05 in Rain Light Rain
7:00 AM 51.8 °F 51.8 °F 100% 29.60 in 2.5 mi ESE 13.8 mph - 0.01 in Rain Rain
7:23 AM 51.8 °F 51.8 °F 100% 29.59 in 4.0 mi ESE 17.3 mph 27.6 mph 0.09 in Rain Light Rain
7:49 AM 51.8 °F 51.8 °F 100% 29.59 in 2.5 mi ESE 16.1 mph 24.2 mph 0.11 in Rain Rain
7:53 AM 52.0 °F 52.0 °F 100% 29.59 in 3.0 mi ESE 15.0 mph 24.2 mph 0.12 in Rain Light Rain
8:10 AM 53.6 °F 51.8 °F 94% 29.59 in 2.0 mi ESE 15.0 mph 24.2 mph 0.04 in Rain Rain
8:39 AM 51.8 °F 51.8 °F 100% 29.59 in 4.0 mi ESE 16.1 mph 25.3 mph 0.06 in Rain Light Rain
8:53 AM 53.1 °F 52.0 °F 96% 29.59 in 3.0 mi ESE 16.1 mph 24.2 mph 0.07 in Rain Light Rain
9:02 AM 51.8 °F 51.8 °F 100% 29.58 in 1.8 mi SE 16.1 mph 25.3 mph 0.01 in Rain Rain
9:22 AM 51.8 °F 51.8 °F 100% 29.58 in 2.5 mi SE 15.0 mph - 0.07 in Rain Rain
9:41 AM 51.8 °F 51.8 °F 100% 29.58 in 1.2 mi SE 16.1 mph - 0.11 in Rain Rain
9:53 AM 52.0 °F 52.0 °F 100% 29.58 in 1.5 mi SE 18.4 mph 25.3 mph 0.15 in Rain Light Rain
10:03 AM 51.8 °F 51.8 °F 100% 29.58 in 2.5 mi SE 15.0 mph 26.5 mph 0.03 in Rain Rain
10:10 AM 53.6 °F 51.8 °F 94% 29.58 in 9.0 mi SE 17.3 mph 26.5 mph 0.04 in Rain Light Rain
10:51 AM 53.6 °F 51.8 °F 94% 29.57 in 2.0 mi ESE 18.4 mph 28.8 mph 0.04 in Rain Light Rain
10:53 AM 53.1 °F 52.0 °F 96% 29.57 in 2.0 mi SE 16.1 mph 27.6 mph 0.04 in Rain Light Rain
11:07 AM 51.8 °F 51.8 °F 100% 29.57 in 1.5 mi SE 18.4 mph 25.3 mph 0.02 in Rain Rain
11:21 AM 51.8 °F 51.8 °F 100% 29.56 in 1.5 mi SE 15.0 mph 25.3 mph 0.05 in Rain Light Rain
11:28 AM 51.8 °F 51.8 °F 100% 29.56 in 3.0 mi SE 15.0 mph 23.0 mph 0.06 in Rain Light Rain
11:42 AM 51.8 °F 51.8 °F 100% 29.56 in 2.5 mi SE 15.0 mph 23.0 mph 0.09 in Rain Rain
11:50 AM 53.6 °F 51.8 °F 94% 29.56 in 7.0 mi SE 15.0 mph 23.0 mph 0.10 in Rain Light Rain
11:53 AM 53.1 °F 52.0 °F 96% 29.56 in 8.0 mi SE 17.3 mph 23.0 mph 0.10 in Rain Light Rain
12:53 PM 53.1 °F 53.1 °F 100% 29.57 in 2.5 mi SE 12.7 mph 32.2 mph 0.17 in Rain Heavy Rain
1:15 PM 53.6 °F 53.6 °F 100% 29.56 in 3.0 mi SE 12.7 mph 25.3 mph 0.11 in Rain Rain
1:26 PM 53.6 °F 53.6 °F 100% 29.56 in 2.0 mi SSE 13.8 mph 21.9 mph 0.17 in Rain Heavy Rain
1:39 PM 53.6 °F 53.6 °F 100% 29.55 in 3.0 mi SSE 15.0 mph 24.2 mph 0.21 in Rain Rain
1:53 PM 53.1 °F 53.1 °F 100% 29.55 in 2.0 mi SE 16.1 mph 28.8 mph 0.25 in Rain Rain
2:10 PM 53.6 °F 53.6 °F 100% 29.54 in 2.5 mi SSE 11.5 mph 21.9 mph 0.05 in Rain Rain
2:32 PM 53.6 °F 53.6 °F 100% 29.53 in 1.5 mi SSE 11.5 mph 28.8 mph 0.13 in Rain Heavy Rain
2:50 PM 51.8 °F 51.8 °F 100% 29.53 in 1.5 mi ESE 13.8 mph 20.7 mph 0.25 in Rain Heavy Rain
2:53 PM 52.0 °F 52.0 °F 100% 29.53 in 1.5 mi ESE 11.5 mph 20.7 mph 0.27 in Rain Heavy Rain
3:10 PM 51.8 °F 51.8 °F 100% 29.52 in 2.0 mi SE 13.8 mph 19.6 mph 0.09 in Rain Rain
3:46 PM 51.8 °F 51.8 °F 100% 29.51 in 1.8 mi SE 15.0 mph 23.0 mph 0.25 in Rain Heavy Rain
3:53 PM 52.0 °F 52.0 °F 100% 29.52 in 2.0 mi SE 13.8 mph 23.0 mph 0.29 in Rain Heavy Rain
4:01 PM 51.8 °F 51.8 °F 100% 29.51 in 1.8 mi SE 18.4 mph 25.3 mph 0.05 in Rain Heavy Rain
4:05 PM 51.8 °F 51.8 °F 100% 29.51 in 2.0 mi SE 21.9 mph 31.1 mph 0.07 in Rain Heavy Rain
4:17 PM 53.6 °F 51.8 °F 94% 29.51 in 3.0 mi SE 20.7 mph 33.4 mph 0.12 in Rain Rain
4:26 PM 53.6 °F 51.8 °F 94% 29.51 in 3.0 mi SE 19.6 mph 34.5 mph 0.16 in Rain Rain
4:53 PM 53.1 °F 52.0 °F 96% 29.50 in 3.0 mi SE 23.0 mph 33.4 mph 0.25 in Rain Rain
5:19 PM 53.6 °F 51.8 °F 94% 29.50 in 4.0 mi SE 20.7 mph 32.2 mph 0.08 in Rain Rain
5:34 PM 53.6 °F 51.8 °F 94% 29.50 in 4.0 mi SE 18.4 mph 31.1 mph 0.12 in Rain Rain
5:53 PM 54.0 °F 52.0 °F 93% 29.49 in 7.0 mi SE 17.3 mph 29.9 mph 0.15 in Rain Light Rain
6:41 PM 53.6 °F 51.8 °F 94% 29.48 in 10.0 mi ESE 13.8 mph 21.9 mph 0.05 in Rain Light Rain
6:53 PM 53.1 °F 51.1 °F 93% 29.48 in 10.0 mi SE 11.5 mph 20.7 mph 0.05 in Rain Light Rain
7:18 PM 53.6 °F 51.8 °F 94% 29.48 in 9.0 mi SE 15.0 mph 25.3 mph 0.02 in Rain Light Rain
7:53 PM 53.1 °F 51.1 °F 93% 29.49 in 10.0 mi SE 10.4 mph 21.9 mph 0.05 in Rain Light Rain
8:53 PM 53.1 °F 50.0 °F 89% 29.49 in 10.0 mi SE 10.4 mph - 0.03 in Rain Light Rain
9:07 PM 51.8 °F 50.0 °F 94% 29.48 in 10.0 mi SE 8.1 mph - 0.01 in Rain Light Rain
9:42 PM 51.8 °F 50.0 °F 94% 29.49 in 7.0 mi SE 5.8 mph - 0.03 in Rain Light Rain
9:53 PM 52.0 °F 50.0 °F 93% 29.49 in 4.0 mi SSE 3.5 mph - 0.06 in Rain Rain
10:53 PM 52.0 °F 50.0 °F 93% 29.50 in 9.0 mi SE 10.4 mph 19.6 mph 0.12 in Rain Light Rain
11:09 PM 51.8 °F 50.0 °F 94% 29.50 in 9.0 mi SE 9.2 mph - 0.01 in Rain Light Rain
11:53 PM 52.0 °F 50.0 °F 93% 29.50 in 10.0 mi SE 6.9 mph - 0.05 in Rain Light Rain